Regional Weather Roundup
Issued by NWS

Home | Current Version | Previous Version | Text Only | Print | Product List | Glossary Off
Versions: 1 2 3 4 5 6 7 8 9 10 11 12 13 14 15 16 17 18 19 20 21 22 23 24 25 26 27

000
ASUS45 KBOI 062010
RWRID

IDAHO REGIONAL WEATHER ROUNDUP
NATIONAL WEATHER SERVICE BOISE ID
100 PM MST TUE DEC 06 2016

NOTE: "FAIR" INDICATES FEW OR NO CLOUDS BELOW 12000 FEET
WITH NO SIGNIFICANT WEATHER AND/OR OBSTRUCTIONS TO VISIBILITY

IDZ012-014-062100-
SOUTHWEST IDAHO


CITY           SKY/WX    TMP DP  RH WIND       PRES   REMARKS
BOISE          CLOUDY    25  20  81 S6        29.93R WCI  18
CALDWELL       CLOUDY    27  21  78 SE8       29.96S WCI  19
$$

IDZ016-017-062100-
SOUTHCENTRAL IDAHO


CITY           SKY/WX    TMP DP  RH WIND       PRES   REMARKS
BURLEY         CLOUDY    23  16  74 NE6       29.80S WCI  16
JEROME         LGT SNOW  21  18  88 NE8       29.82F FOG     WCI  11
TWIN FALLS     SNOW      21  18  88 CALM      29.82S VSB 1/2
$$

IDZ019>023-062100-
SOUTHEAST IDAHO


CITY           SKY/WX    TMP DP  RH WIND       PRES   REMARKS
IDAHO FALLS    CLOUDY    18   3  52 CALM      29.81F
POCATELLO      LGT SNOW  20   9  62 CALM      29.82F
REXBURG        CLOUDY    15   4  61 E3        29.80F
$$

IDZ006-010-011-018-031-032-062100-
CENTRAL IDAHO MOUNTAINS


CITY           SKY/WX    TMP DP  RH WIND       PRES   REMARKS
MCCALL         LGT SNOW  18  14  84 VRB3      29.77S FOG
HAILEY         CLOUDY    19   9  63 W3        29.76F
STANLEY          N/A      5   0  79 NW3       29.73F
SALMON         CLOUDY    12   9  85 CALM      29.89F
CHALLIS        CLOUDY    14   8  77 E3        29.80F
$$

IDZ002-004-006-007-026-062100-
NORTHERN IDAHO


CITY           SKY/WX    TMP DP  RH WIND       PRES   REMARKS
LEWISTON       LGT SNOW  31  27  85 W3        30.00R FOG
LOWELL         NOT AVBL
COEUR D`ALENE  SUNNY     29  15  56 N20       29.99S WCI  16
MULLAN PASS    LGT SNOW  11   8  88 CALM      29.76S FOG
$$




USA.gov is the U.S. government's official web portal to all federal, state and local government web resources and services.